Blytheville Muni Airport, AR

9:49 PM CDT on June 27, 2017 (GMT -0500)
Blytheville Municipal

Weather History for KHKA - February, 2012

Change the Weather History Date:

Tuesday, February 28, 2012

  Actual Average Record
Temperature  
Mean Temperature 58 °F -  
Max Temperature 72 °F 54 °F 78 °F (1981)
Min Temperature 43 °F 36 °F 20 °F (1941)
Degree Days  
Heating Degree Days 8    
Growing Degree Days 8 (Base 50)    
Moisture  
Dew Point 46 °F    
Average Humidity 64    
Maximum Humidity 90    
Minimum Humidity 47    
Precipitation  
Precipitation 0.00 in - - ()
Sea Level Pressure  
Sea Level Pressure 30.14 in    
Wind  
Wind Speed 10 mph (SE)    
Max Wind Speed 21 mph    
Max Gust Speed 31 mph    
Visibility 10 miles    
Events Rain    
Averages and records for this station are not official NWS values.
T = Trace of Precipitation, MM = Missing Value Source: NWS Daily Summary

Daily Weather History Graph

Daily Weather History Graph

Search for Another Location

Airport or City:

Trip Planner

Search our weather history database for the weather conditions in past years. The results will help you decide how hot, cold, wet, or windy it might be!

Date:

Astronomy

Feb. 28, 2012 Rise Set
Actual Time 6:31 AM CST 5:52 PM CST
Civil Twilight 6:05 AM CST 6:18 PM CST
Nautical Twilight 5:35 AM CST 6:48 PM CST
Astronomical Twilight 5:06 AM CST 7:18 PM CST
Moon 9:52 AM CST No Moon Set
Length of Visible Light 12h 13m
Length of Day
11h 21m
Waxing Crescent, 38% of the Moon is Illuminated
Feb 28
Waxing Crescent
Feb 29
First Quarter
Mar 8
Full
Mar 14
Last Quarter
Mar 22
New

Hourly Weather History & Observations

Time (CST) Temp. Windchill Dew Point Humidity Pressure Visibility Wind Dir Wind Speed Gust Speed Precip Events Conditions
12:53 AM 46.0 °F 41.9 °F 30.9 °F 56% 30.34 in 10.0 mi ENE 8.1 mph - N/A   Clear
1:53 AM 45.0 °F 40.1 °F 30.9 °F 58% 30.33 in 10.0 mi East 9.2 mph - N/A   Partly Cloudy
2:53 AM 43.0 °F 41.3 °F 32.0 °F 65% 30.32 in 10.0 mi ENE 3.5 mph - N/A   Clear
3:53 AM 44.1 °F 41.5 °F 33.1 °F 65% 30.32 in 10.0 mi ENE 4.6 mph - N/A   Overcast
4:53 AM 44.1 °F 41.5 °F 33.1 °F 65% 30.30 in 10.0 mi East 4.6 mph - N/A   Overcast
5:53 AM 46.9 °F - 32.0 °F 56% 30.30 in 10.0 mi East 8.1 mph - N/A   Overcast
6:53 AM 46.9 °F - 33.1 °F 59% 30.29 in 10.0 mi East 6.9 mph - N/A   Overcast
7:53 AM 48.9 °F - 34.0 °F 56% 30.28 in 10.0 mi East 6.9 mph - N/A   Overcast
8:53 AM 52.0 °F - 34.0 °F 50% 30.27 in 10.0 mi SE 4.6 mph - N/A   Overcast
9:53 AM 57.0 °F - 37.0 °F 47% 30.25 in 10.0 mi SSE 9.2 mph - N/A   Overcast
10:53 AM 59.0 °F - 39.9 °F 49% 30.23 in 10.0 mi SE 9.2 mph - N/A   Overcast
11:53 AM 64.9 °F - 45.0 °F 48% 30.20 in 10.0 mi SSE 8.1 mph - N/A   Mostly Cloudy
12:53 PM 68.0 °F - 48.0 °F 49% 30.14 in 10.0 mi South 13.8 mph - N/A   Mostly Cloudy
2:53 PM 72.0 °F - 53.1 °F 51% 30.09 in 10.0 mi South 8.1 mph - N/A   Overcast
3:53 PM 71.1 °F - 55.0 °F 57% 30.05 in 10.0 mi South 15.0 mph - N/A   Overcast
4:53 PM 70.0 °F - 55.0 °F 59% 30.05 in 10.0 mi South 12.7 mph - N/A   Overcast
5:53 PM 68.0 °F - 55.9 °F 65% 30.03 in 10.0 mi South 12.7 mph - N/A   Mostly Cloudy
6:53 PM 66.0 °F - 55.9 °F 70% 30.00 in 10.0 mi South 13.8 mph - N/A   Scattered Clouds
7:53 PM 64.9 °F - 57.0 °F 75% 29.96 in 10.0 mi South 20.7 mph 28.8 mph N/A   Partly Cloudy
8:53 PM 64.9 °F - 57.9 °F 78% 29.97 in 10.0 mi South 17.3 mph 27.6 mph N/A   Overcast
9:00 PM 64.4 °F - 57.2 °F 77% 29.98 in 10.0 mi South 16.1 mph 24.2 mph N/A   Overcast
9:53 PM 64.0 °F - 59.0 °F 84% 29.94 in 10.0 mi SSE 18.4 mph 23.0 mph 0.00 in Rain Light Rain
10:30 PM 64.4 °F - 60.8 °F 88% 29.94 in 10.0 mi South 16.1 mph - 0.00 in Rain Light Rain
10:53 PM 64.0 °F - 61.0 °F 90% 29.93 in 10.0 mi South 17.3 mph - 0.00 in Rain Light Rain
11:53 PM 66.0 °F - 62.1 °F 87% 29.90 in 10.0 mi South 19.6 mph 31.1 mph 0.00 in   Overcast